Regional Weather Roundup
Issued by NWS San Angelo, TX

Home | Current Version | Previous Version | Text Only | Print | Product List | Glossary On
Versions: 1 2 3 4 5 6 7 8 9 10 11 12 13 14 15 16 17 18 19 20 21 22 23 24 25 26 27 28 29 30 31 32 33 34 35 36 37 38 39 40 41 42 43 44 45 46 47 48 49 50
000
ASUS44 KSJT 171558
RWRSJT
WEST CENTRAL TEXAS REGIONAL WEATHER ROUNDUP
NATIONAL WEATHER SERVICE SAN ANGELO TX
1100 AM CDT THU APR 17 2014

NOTE: "FAIR" INDICATES FEW OR NO CLOUDS BELOW 12,000 FEET WITH NO
SIGNIFICANT WEATHER AND/OR OBSTRUCTIONS TO VISIBILITY.

TXZ049-054-064>066-071>073-076>078-098-099-113-114-127-128-139-140-
154-155-168>170-171700
...LOCATIONS ACROSS WEST CENTRAL TEXAS...

CITY           SKY/WX    TMP DP  RH WIND       PRES   REMARKS
SAN ANGELO     CLOUDY    62  51  67 SE10      30.04R
ABILENE        CLOUDY    58  51  78 SE22      30.08R
DYESS AFB      CLOUDY    57  52  82 SE15      30.08R
JUNCTION       CLOUDY    61  53  75 SE8       30.07R
SWEETWATER     NOT AVBL
BROWNWOOD      NOT AVBL
COLEMAN        NOT AVBL
SONORA         NOT AVBL
OZONA          NOT AVBL
BRADY          NOT AVBL
$$

TEXAS PANHANDLE/OKLAHOMA PANHANDLE

CITY           SKY/WX    TMP DP  RH WIND       PRES   REMARKS
AMARILLO       CLOUDY    43  32  65 NE18      30.21R WCI  35
BORGER         CLOUDY    44  31  60 NE17      30.23R WCI  36
CANADIAN       NOT AVBL
DALHART          N/A     45  34  65 MISG      30.25R
DUMAS          NOT AVBL
GUYMON         NOT AVBL
HEREFORD       NOT AVBL
PAMPA          NOT AVBL
PERRYTON       NOT AVBL
$$

SOUTHERN PANHANDLE/SOUTH PLAINS/ROLLING PLAINS

CITY           SKY/WX    TMP DP  RH WIND       PRES   REMARKS
LUBBOCK        NOT AVBL
SNYDER         NOT AVBL
CHILDRESS      CLOUDY    53  44  71 NE9       30.14R
SEMINOLE       NOT AVBL
$$

PERMIAN BASIN

CITY           SKY/WX    TMP DP  RH WIND       PRES   REMARKS
MIDLAND        NOT AVBL
ODESSA         NOT AVBL
WINK           NOT AVBL
$$

FAR WEST/SOUTHWEST MOUNTAINS/TRANS PECOS

CITY           SKY/WX    TMP DP  RH WIND       PRES   REMARKS
ALPINE         NOT AVBL
DRYDEN           N/A     66  48  52 VRB7      30.00R
EL PASO        SUNNY     66  24  20 N13       30.06R
FORT STOCKTON  SUNNY     64  35  34 NW17G31   30.05R
GUADALUPE PASS SUNNY     60  25  26 VRB3      30.13R
MARFA          NOT AVBL
PECOS          NOT AVBL
$$

DALLAS/FORT WORTH METROPLEX

CITY           SKY/WX    TMP DP  RH WIND       PRES   REMARKS
DFW AIRPORT    PTSUNNY   60  51  72 E7        30.15R
FTW MEACHAM    CLOUDY    61  52  72 SE10      30.13S
DAL-EXECUTIVE  NOT AVBL
GRAND PRAIRIE  NOT AVBL
ADDISON        PTSUNNY   59  50  72 E8        30.16S
MESQUITE       NOT AVBL
LANCASTER      NOT AVBL
$$

NORTH CENTRAL TEXAS

CITY           SKY/WX    TMP DP  RH WIND       PRES   REMARKS
SHRMAN/DENISON NOT AVBL
GAINESVILLE    NOT AVBL
BRIDGEPORT     NOT AVBL
DENTON         CLOUDY    59  50  72 E10       30.15R
WAXAHACHIE     NOT AVBL
GRANBURY       NOT AVBL
$$

WESTERN NORTH TEXAS

CITY           SKY/WX    TMP DP  RH WIND       PRES   REMARKS
WICHITA FALLS  PTSUNNY   62  51  67 SE10G17   30.12R
VERNON         NOT AVBL
BRECKENRIDGE   NOT AVBL
COMANCHE       NOT AVBL
$$

CENTRAL AND SOUTH CENTRAL TEXAS

CITY           SKY/WX    TMP DP  RH WIND       PRES   REMARKS
AUSTIN/BERGSTM CLOUDY    63  57  81 E8        30.08R
WACO           CLOUDY    59  52  77 E8        30.14R
HILLSBORO      NOT AVBL
TEMPLE         NOT AVBL
KILLEEN-GRAY   CLOUDY    57  54  88 E8        30.11R
FORT HOOD      NOT AVBL
GEORGETOWN     CLOUDY    63  54  72 E7        30.11R
LAGO VISTA     NOT AVBL
SAN MARCOS     CLOUDY    64  54  68 E13       30.09R
NEW BRAUNFELS  CLOUDY    65  57  75 E10       30.06R
RANDOLPH AFB   NOT AVBL
SAN ANTONIO    CLOUDY    66  57  72 SE10      30.06R
STINSON        NOT AVBL
PLEASANTON     NOT AVBL
LA GRANGE      NOT AVBL
GIDDINGS       NOT AVBL
$$

EAST TEXAS

CITY           SKY/WX    TMP DP  RH WIND       PRES   REMARKS
PARIS          NOT AVBL
CLARKSVILLE    NOT AVBL
TYLER          NOT AVBL
LONGVIEW       NOT AVBL
PALESTINE      CLOUDY    60  49  65 E13       30.18R
NACOGDOCHES    NOT AVBL
$$

TEXAS HILL COUNTRY AND EDWARDS PLATEAU

CITY           SKY/WX    TMP DP  RH WIND       PRES   REMARKS
LLANO          NOT AVBL
HORSESHOE BAY  NOT AVBL
KERRVILLE      NOT AVBL
FREDERICKSBRG  NOT AVBL
ROCKSPRINGS    NOT AVBL
HONDO          CLOUDY    68  58  70 SE13      30.06R
UVALDE         NOT AVBL
DEL RIO        CLOUDY    66  54  65 SE10      30.01R
$$

SOUTHEAST TEXAS

CITY           SKY/WX    TMP DP  RH WIND       PRES   REMARKS
COLLEGE STN    CLOUDY    64  56  75 E14       30.12R
CALDWELL       NOT AVBL
CROCKETT       NOT AVBL
BRENHAM        NOT AVBL
HUNTSVILLE     NOT AVBL
CONROE         CLOUDY    62  53  72 VRB7G16   30.14R
HOUSTON BUSH   NOT AVBL
HOUSTON HOBBY  NOT AVBL
PERLAND        NOT AVBL
WHARTON        NOT AVBL
$$

THE UPPER TEXAS COAST

CITY           SKY/WX    TMP DP  RH WIND       PRES   REMARKS
ORANGE         NOT AVBL
PORT ARTHUR    CLOUDY    61  52  72 E10       30.15S
GALVESTON      CLOUDY    64  61  90 E20G29    30.06F
ANGLETON       NOT AVBL
BAY CITY       NOT AVBL
$$

TEXAS COASTAL BEND, RIO GRANDE PLAINS DEEP SOUTH TEXAS

CITY           SKY/WX    TMP DP  RH WIND       PRES   REMARKS
VICTORIA       CLOUDY    72  59  63 SE9       30.05R
BEEVILLE       NOT AVBL
ROCKPORT       NOT AVBL
PORT ARANSAS   NOT AVBL
PORT LAVACA    NOT AVBL
CORPUS CHRISTI DRIZZLE   67  64  90 SE9       30.03R FOG
KINGSVILLE NAS NOT AVBL
COTULLA        PTSUNNY   70  58  65 S13       30.02R
LAREDO         NOT AVBL
BROWNSVILLE    CLOUDY    70  67  90 E6        29.99R
PORT ISABEL    NOT AVBL
HEBBRONVILLE   NOT AVBL
MCALLEN        NOT AVBL
WESLACO        NOT AVBL
FALFURRIAS     NOT AVBL
EDINBURG       NOT AVBL
$$



USA.gov is the U.S. government's official web portal to all federal, state and local government web resources and services.